Tracking 30918 objects as of 2-Jul-2025
HD Live streaming from Space Station
objects crossing your sky now

STARLINK-4559

Track STARLINK-4559 now!
10-day predictions
STARLINK-4559 is classified as:


NORAD ID: 53574
Int'l Code: 2022-101AZ
Perigee: 545.4 km
Apogee: 548.4 km
Inclination: 53.2 °
Period: 95.4 minutes
Semi major axis: 6917 km
RCS: Unknown
Launch date: August 19, 2022
Source: United States (US)
Launch site: AIR FORCE EASTERN TEST RANGE (AFETR)
Your satellite tracking list
DANDE DEB (LAB)
Track 1 satellite(s)




NASA's NSSDC Master Catalog

Two Line Element Set (TLE):
1 53574U 22101AZ  25182.80140578 -.00000551  00000-0 -16494-4 0  9992
2 53574  53.2179 100.1150 0002109 105.6346 254.4879 15.08834749158572
Source of the keplerian elements: AFSPC